Location: Hermaringen
(48.5952°N, 10.2585°E)
Time: 10:14:59
(UTC+00:00)

Courier 1B - Pass Details

Date: 19 February 2026
Orbit: 962 x 1208 km, 28.3° (Epoch: 7 March)

Event Time Altitude Azimuth Distance (km) Brightness Sun altitude
Rises 21:46:48 0° 242° (WSW) 4,004 - -46.4°
Reaches altitude 10° 21:51:27 10° 217° (SW) 3,086 - -46.9°
Maximum altitude 21:54:39 13° 192° (SSW) 2,881 - -47.2°
Drops below altitude 10° 21:57:53 10° 167° (SSE) 3,126 - -47.5°
Sets 22:02:41 0° 142° (SE) 4,101 - -48.0°
